www.pogodaiklimat.ru

Погода и климат >> Архив погоды >> Германия >> Трир


ПОГОДА в Трире

  • Прогноз погоды в Трире
  • Монитор погоды в Трире

АРХИВ ПОГОДЫ в Трире

Время (UTC), дата Ветер
(напр.,м/с)
 
Видим.   Явления Облачность Т
(С)
Тd
(С)
f
(%)
Тe
(С)
Тes
(С)
Комфортность P
(гПа)
Po
(гПа)
Тmin
(С)
Tmax
(С)
R
(мм)
R24
(мм)
S
(см)
10 10.08 ЮЗ 8 70 км 9/9 1000 м
[]
+21.1 +13.2 61 +23 +24 комфорт 1014.4 983.0
11 10.08 ЮЗ 8 70 км 10/10 1110 м
[]
+22.5 +12.6 54 +25 +25 комфорт 1014.3 983.1
12 10.08 ЮЗ 10 70 км 9/9 1260 м
[]
+23.9 +13.2 51 +26 +26 жарко 1014.1 983.0
13 10.08 ЮЗ 10 65 км 5/5 1410 м
[]
+23.8 +11.7 47 +25 +26 комфорт 1014.2 983.1
14 10.08 ЮЗ 11-16
{18}
70 км 3/3 1500 м
[]
+24.2 +11.2 44 +26 +26 жарко 1014.3 983.2
15 10.08 ЮЗ 10 70 км 4/4 1500 м
[]
+24.6 +12.0 45 +26 +26 жарко 1014.3 983.3
16 10.08 ЮЗ 9-14
{17}
70 км 4/4 1500 м
[]
+23.7 +9.8 41 +25 +25 комфорт 1015.0 983.8
17 10.08 ЮЗ 8-14
{14}
70 км 1/0 2000 м
[]
+23.3 +9.5 41 +25 +25 комфорт 1015.0 983.8
18 10.08 ЮЗ 6 70 км 1/0 2000 м
[]
+22.8 +9.0 41 +24 +24 комфорт 1015.3 984.0 +17.7 +25.5
19 10.08 ЮЗ 4-6
{10}
70 км 1/0 2000 м
[]
+21.1 +9.6 48 +22 +22 комфорт 1015.9 984.4
20 10.08 Ю 4-4
{5}
70 км 8/0
[]
+19.6 +10.1 54 +21 +21 комфорт 1016.5 984.9
21 10.08 ЮЗ 4 70 км 4/0 2000 м
[]
+19.1 +10.5 57 +20 +20 1016.6 984.9
22 10.08 ЮЗ 3-4
{5}
70 км ясно +17.9 +10.5 62 +18 +18 1016.7 984.9
23 10.08 ЮЗ 3-4
{4}
70 км 9/0 2000 м
[]
+18.2 +10.8 62 +19 +19 1016.9 985.1
00 11.08 ЮЗ 3 70 км 5/5 1500 м
[]
+17.2 +11.0 67 +17 +17 1017.1 985.2
01 11.08 Ю 3-3
{4}
70 км 4/0 2000 м
[]
+16.7 +10.9 69 +16 +16 1017.2 985.2
02 11.08 Ю 3-4
{4}
70 км ясно +16.1 +10.7 70 +16 +16 1017.3 985.3
03 11.08 ЮЗ 3-4
{4}
70 км ясно +15.3 +10.7 74 +15 +15 1017.2 985.1
04 11.08 ЮЗ 3 60 км 9/9 1500 м
[]
+15.2 +10.9 75 +15 +15 1017.5 985.4
05 11.08 ЮЗ 3 60 км 10/0
[]
+14.6 +11.1 80 +14 +14 1017.8 985.6
06 11.08 ЮЗ 2 65 км 10/10 1500 м
[]
+15.1 +11.3 78 +15 +15 1017.4 985.3 +14.4 +22.8
07 11.08 Ю 2 65 км 10/0
[]
+18.0 +12.7 71 +19 +21 1017.1 985.3
08 11.08 Ю 2 70 км 8/0
[]
+19.3 +10.6 57 +21 +25 комфорт 1016.9 985.2
09 11.08 ЮЗ 2 70 км 10/0
[]
+19.7 +10.5 55 +22 +27 комфорт 1016.7 985.1
10 11.08 ЮЗ 4 70 км 10/0
[]
+20.8 +10.2 51 +23 +27 комфорт 1016.3 984.8
11 11.08 ЮЗ 4 70 км 10/0
[]
+21.9 +11.5 52 +24 +29 комфорт 1015.8 984.4
12 11.08 ЮЗ 4 70 км 10/0
[]
+20.4 +9.1 48 +22 +27 комфорт 1015.3 983.8
13 11.08 ЮЗ 3-5
{7}
70 км 10/0
[]
+19.5 +8.5 49 +21 +26 комфорт 1015.3 983.7
14 11.08 З 2 40 км слаб. дождь 10/10 1410 м
[]
+18.1 +9.2 56 +19 +19 1015.3 983.5
15 11.08 Ю 2 22 км слаб. дождь 10/10 180 м
[]
+16.2 +13.5 84 +16 +16 1016.4 984.4 1
16 11.08 Ю 2-3
{3}
55 км слаб. дождь 9/0
[]
+16.3 +13.7 85 +16 +19 1015.9 984.0
17 11.08 ЮЗ 2-3
{3}
70 км в посл. час дождь {морось} 10/0 2000 м
[]
+16.3 +13.4 83 +16 +17 1015.2 983.3
18 11.08 Ю 3 70 км {дождь, морось} 10/0 2000 м
[]
+16.3 +13.2 82 +16 +16 1015.8 983.9 +15.1 +22.6 0.5
19 11.08 ЮЗ 3 70 км 9/0
[]
+14.9 +12.2 84 +14 +14 1016.6 984.5
20 11.08 Ю 4-5
{5}
70 км 9/0
[]
+14.5 +12.0 85 +13 +13 1017.3 985.1
21 11.08 Ю 3 65 км 9/0
[]
+14.3 +11.8 85 +13 +13 1017.4 985.2
22 11.08 ЮЗ 3-5
{6}
70 км 10/0
[]
+14.5 +11.2 81 +14 +14 1017.5 985.3
23 11.08 Ю 3-4
{5}
65 км 10/0
[]
+13.3 +11.0 86 +12 +12 1017.8 985.4
00 12.08 ЮЗ 3 60 км 10/0
[]
+12.9 +11.2 89 +11 +11 1017.8 985.4
01 12.08 ЮЗ 3-5
{5}
60 км 4/0
[]
+12.7 +11.1 90 +11 +11 1017.9 985.5
02 12.08 Ю 3 45 км 10/0
[]
+12.3 +11.1 92 +11 +11 1018.1 985.6
03 12.08 ЮЗ 2 40 км 10/0
[]
+12.5 +11.5 94 +11 +11 1018.1 985.7
04 12.08 ЮЗ 2-2
{3}
35 км 10/0
[]
+12.3 +11.4 94 +11 +11 1017.9 985.4
05 12.08 ЮЗ 2 30 км 6/0
[]
+12.3 +11.5 95 +11 +11 1017.9 985.4
06 12.08 Ю 1 23 км 1/0
[]
+12.5 +11.7 95 +12 +14 1017.7 985.3 +11.9 +16.5
07 12.08 Ю 2-3
{3}
45 км 1/0
[]
+14.7 +12.2 85 +14 +18 1017.4 985.2
08 12.08 ЮЗ 3 70 км 8/8 400 м
[]
+16.4 +12.1 76 +16 +17 1017.4 985.4
09 12.08 Ю 3 70 км 10/10 420 м
[]
+17.2 +12.9 76 +17 +17 1017.3 985.4
10 12.08 ЮЗ 4 70 км 10/0
[]
+18.9 +13.0 69 +20 +24 1017.4 985.7
11 12.08 Ю 5 65 км 10/10 660 м
[]
+19.6 +13.2 67 +21 +21 комфорт 1016.7 985.1
12 12.08 Ю 3 65 км 10/10 840 м
[]
+20.5 +12.5 60 +23 +23 комфорт 1015.7 984.2
13 12.08 ЮЗ 4 70 км слаб. дождь 10/10 60 м
[]
+19.0 +11.5 62 +20 +20 1015.6 983.9
14 12.08 З 3 40 км слаб. дождь {морось} 9/9 270 м
[]
+14.1 +12.1 88 +13 +14 1016.7 984.5
15 12.08 Ю 2 65 км слаб. дождь {морось} 9/0 2000 м
[]
+14.9 +13.5 91 +15 +19 1016.3 984.2 4
16 12.08 ЮВ 1 70 км в посл. час дождь {морось} 10/0
[]
+16.9 +15.1 89 +18 +20 1015.6 983.8
17 12.08 ЮЗ 3-5
{5}
70 км 8/0
[]
+17.5 +14.0 80 +18 +18 1015.4 983.6
18 12.08 ЮЗ 2 70 км {дождь, морось} 10/10 1500 м
[]
+16.2 +13.4 83 +16 +16 1016.1 984.1 +12.5 +22.1 0.2
19 12.08 Ю 6 35 км слаб. дождь {морось} 10/10 210 м
[]
+14.8 +12.1 84 +13 +13 1016.4 984.3
20 12.08 В 2 70 км в посл. час дождь 8/8 1000 м
[]
+13.6 +12.0 90 +13 +13 1017.1 984.8
21 12.08 С 2 65 км {дождь, морось} 5/5 930 м
[]
+13.1 +12.1 94 +12 +12 1017.6 985.2 0.4
22 12.08 В 2-2
{4}
21 км 1/0 2000 м
[]
+12.1 +11.5 96 +11 +11 1017.9 985.4
23 12.08 ЮЗ 1 700 м туман {дымка} 10/10 <50 м
[]
+12.4 +12.0 97 +12 +12 1017.9 985.5
00 13.08 ЮЗ 3 6000 м слаб. дождь {морось} 10/10 <50 м
[]
+12.6 +12.2 97 +11 +11 1018.2 985.8 0.1
01 13.08 Ю 3 50 км в посл. час дождь {морось} 10/10 1110 м
[]
+12.4 +11.6 95 +11 +11 1018.1 985.6
02 13.08 Ю 3 50 км 9/9 1200 м
[]
+12.1 +11.4 95 +10 +10 1018.2 985.7
03 13.08 Ю 3 50 км {дождь, морось} 10/10 600 м
[]
+12.2 +11.4 95 +10 +10 1018.3 985.8 2
04 13.08 ЮЗ 3 35 км 9/9 270 м
[]
+11.8 +11.0 95 +10 +10 1018.8 986.2
05 13.08 З 3 70 км 9/9 270 м
[]
+11.8 +9.6 86 +10 +10 1019.4 986.8
06 13.08 Ю 2 60 км {дождь, морось} 9/9 600 м
[]
+12.3 +10.7 90 +11 +11 1019.7 987.2 +11.7 +16.3 2
07 13.08 ЮЗ 3-5
{5}
70 км 9/9 630 м
[]
+13.7 +10.4 80 +13 +13 1020.4 988.0
08 13.08 ЮЗ 3 70 км 9/9 400 м
[]
+14.6 +10.5 76 +14 +14 1020.6 988.3
09 13.08 ЮЗ 3 70 км 8/8 500 м
[]
+14.8 +10.1 73 +14 +16 1020.9 988.6
10 13.08 З 3 70 км 4/4 750 м
[]
+16.3 +8.2 59 +16 +22 1020.4 988.3
11 13.08 З 3 70 км 8/8 1200 м
[]
+16.8 +8.1 56 +17 +19 1020.4 988.3
12 13.08 ЮЗ 5 70 км 5/0 2000 м
[]
+19.5 +8.6 49 +20 +26 1019.5 987.7
13 13.08 ЮЗ 4 70 км 9/9 1380 м
[]
+19.8 +8.2 47 +21 +22 комфорт 1018.9 987.2
14 13.08 ЮЗ 5-10
{10}
70 км 1/1 1500 м
[]
+21.5 +8.9 44 +23 +28 комфорт 1018.3 986.8
15 13.08 ЮЗ 4 70 км 3/3 1500 м
[]
+20.5 +5.0 36 +21 +25 комфорт 1018.3 986.6
16 13.08 ЮЗ 5 70 км 9/9 1500 м
[]
+19.3 +5.9 41 +20 +20 1018.2 986.4
17 13.08 ЮЗ 4 70 км 10/10 1500 м
[]
+18.8 +7.3 47 +19 +19 1018.2 986.4
18 13.08 С 3 70 км 10/10 1500 м
[]
+16.9 +9.0 60 +17 +17 1018.7 986.7 +12.2 +21.7
19 13.08 СЗ 2 70 км 9/9 1500 м
[]
+15.5 +9.3 67 +15 +15 1019.1 986.9
20 13.08 СЗ 1-2
{3}
70 км 10/0
[]
+15.0 +9.6 70 +16 +16 1019.7 987.5
21 13.08 ЮВ 1 70 км в посл. час дождь {морось} 10/0 2000 м
[]
+14.0 +10.6 80 +14 +14 1019.8 987.5 0.0
22 13.08 Ю 2 70 км в посл. час дождь {морось} 10/10 1500 м
[]
+14.2 +10.2 77 +14 +14 1019.9 987.6
23 13.08 ЮЗ 2 70 км 10/10 1500 м
[]
+14.1 +10.7 80 +14 +14 1020.0 987.7
00 14.08 ЮЗ 2 70 км в посл. час дождь {морось} 10/0 2000 м
[]
+13.9 +10.0 77 +13 +13 1020.0 987.6 0.0
01 14.08 ЮЗ 2 70 км 10/10 1500 м
[]
+13.9 +9.4 74 +13 +13 1020.1 987.7
02 14.08 ЮЗ 2 70 км в посл. час дождь {морось} 10/10 1230 м
[]
+13.8 +9.7 76 +13 +13 1019.9 987.5
03 14.08 ЮЗ 2 70 км {дождь, морось} 5/0 2000 м
[]
+12.9 +9.6 80 +12 +12 1019.8 987.3 0.0
04 14.08 Ю 1 70 км 5/5 1300 м
[]
+11.9 +9.6 86 +12 +12 1019.7 987.1
05 14.08 ЮЗ 1 70 км 8/8 540 м
[]
+12.3 +10.3 88 +12 +12 1020.0 987.5
06 14.08 В 1 70 км {дождь, морось} 9/9 300 м
[]
+12.7 +10.4 86 +13 +13 1020.3 987.8 +11.7 +17.0 0.0
07 14.08 ЮЗ 1 70 км слаб. дождь {морось} 9/9 540 м
[]
+13.6 +10.1 79 +14 +14 1020.5 988.1
08 14.08 Ю 2 70 км в посл. час дождь {морось} 8/8 1140 м
[]
+15.0 +10.4 74 +15 +16 1020.4 988.1
09 14.08 ЮЗ 3 70 км {дождь, морось} 9/9 1080 м
[]
+16.5 +11.1 70 +16 +17 1020.3 988.2 0.0
10 14.08 ЮЗ 4 70 км 8/8 1020 м
[]
+18.2 +11.4 64 +18 +20 1019.8 987.9
11 14.08 Ю 5-7
{7}
70 км 8/8 1500 м
[]
+19.1 +12.2 64 +20 +21 1019.3 987.5
12 14.08 ЮЗ 4 70 км {дождь, морось} 10/10 960 м
[]
+20.4 +10.8 54 +22 +22 комфорт 1018.6 987.0
13 14.08 Ю 5 70 км 5/5 1200 м
[]
+21.9 +11.0 50 +24 +27 комфорт 1017.9 986.5
14 14.08 ЮЗ 5 70 км 4/4 1140 м
[]
+20.6 +9.5 49 +22 +25 комфорт 1017.6 986.0
15 14.08 ЮЗ 4 70 км 4/4 1300 м
[]
+21.5 +9.2 45 +23 +26 комфорт 1017.0 985.5
16 14.08 Ю 4 70 км 8/8 1500 м
[]
+21.8 +10.3 48 +24 +24 комфорт 1016.3 984.9
17 14.08 Ю 3 70 км 9/9 1500 м
[]
+21.1 +10.1 49 +23 +23 комфорт 1015.8 984.3
18 14.08 Ю 4 70 км 8/8 1500 м
[]
+20.8 +10.1 50 +23 +23 комфорт 1015.3 983.8 +12.8 +22.7
19 14.08 ЮВ 4-5
{5}
70 км 3/0 2000 м
[]
+18.4 +10.8 61 +19 +19 1015.1 983.4
20 14.08 ЮВ 2-5
{5}
70 км ясно +16.2 +10.7 70 +16 +16 1015.3 983.3
21 14.08 В 2 70 км 9/0
[]
+16.9 +10.1 64 +17 +17 1014.9 983.0
22 14.08 ЮВ 2 70 км 10/0
[]
+17.4 +10.0 62 +18 +18 1014.4 982.6
23 14.08 Ю 3 70 км 10/0
[]
+17.4 +10.6 64 +17 +17 1014.0 982.2
00 15.08 ЮЗ 3 70 км в посл. час дождь 10/0
[]
+18.0 +9.8 59 +18 +18 1013.6 981.9 0.0
01 15.08 ЮЗ 4 70 км слаб. дождь {морось} 10/10 1500 м
[]
+16.9 +10.7 67 +16 +16 1013.7 981.9
02 15.08 ЮЗ 3 70 км в посл. час дождь {морось} 10/10 1500 м
[]
+16.5 +10.9 69 +16 +16 1013.1 981.2
03 15.08 ЮЗ 3 70 км {дождь, морось} 10/10 1500 м
[]
+16.4 +11.2 71 +16 +16 1012.3 980.5 0.1
04 15.08 ЮЗ 4 70 км в посл. час морось 10/10 870 м
[]
+16.7 +11.5 71 +16 +16 1012.0 980.2
05 15.08 Ю 7 70 км 9/9 500 м
[]
+16.4 +12.2 76 +15 +15 1012.2 980.4
06 15.08 Ю 6 70 км морось {дождь} 10/10 300 м
[]
+15.8 +13.3 85 +14 +14 1012.5 980.6 +15.8 +20.8 0.1
07 15.08 Ю 5 5000 м слаб. морось с дождем 10/10 90 м
[]
+15.0 +14.4 96 +13 +13 1012.6 980.6
08 15.08 Ю 5-8
{8}
6000 м сильн. морось {дождь} 9/9 150 м
[]
+15.5 +14.8 96 +14 +15 1012.5 980.6
09 15.08 ЮЗ 4 35 км в посл. час дождь {морось} 10/10 210 м
[]
+16.3 +15.2 93 +16 +16 1012.6 980.8 3
10 15.08 ЮЗ 6 70 км 8/8 400 м
[]
+19.0 +15.5 80 +20 +21 1012.3 980.8
11 15.08 ЮЗ 5 70 км в посл. час дождь {морось} 10/10 750 м
[]
+19.7 +14.7 73 +21 +21 комфорт 1012.2 980.8
12 15.08 ЮЗ 6 70 км в посл. час дождь {морось} 10/0 2000 м
[]
+19.6 +14.1 71 +21 +24 комфорт 1012.6 981.1 0.1
13 15.08 З 5 70 км в посл. час дождь {морось} 9/9 720 м
[]
+19.1 +14.5 75 +20 +21 1012.9 981.4
14 15.08 ЮЗ 5 70 км 9/9 1300 м
[]
+21.9 +13.1 57 +25 +25 комфорт 1012.7 981.4
15 15.08 З 7 55 км слаб. дождь {морось} 10/10 1230 м
[]
+18.4 +12.9 70 +18 +18 1014.1 982.4 0.3
16 15.08 ЮЗ 5-8
{13}
70 км в посл. час дождь {морось} 9/0
[]
+19.0 +12.7 67 +20 +21 1014.2 982.6
17 15.08 З 7 70 км 10/10 1110 м
[]
+19.2 +12.0 63 +20 +20 1014.5 982.9
18 15.08 З 3 70 км в посл. час дождь {морось} 10/10 600 м
[]
+18.3 +12.4 68 +19 +19 1015.2 983.5 +14.9 +21.9 0.3
19 15.08 ЮЗ 4 70 км в посл. час дождь {морось} 9/9 150 м
[]
+14.9 +13.5 91 +14 +14 1016.5 984.4
20 15.08 Ю 3 35 км 9/9 1000 м
[]
+15.0 +14.3 96 +14 +14 1017.4 985.3
21 15.08 Ю 2-3
{10}
65 км {дождь, морось} ясно +14.5 +13.7 95 +14 +14 1018.0 985.8 3
22 15.08 ЮЗ 2-3
{3}
23 км 4/4 1050 м
[]
+13.9 +13.3 96 +13 +13 1018.8 986.5
23 15.08 ЮЗ 3 35 км 5/5 1020 м
[]
+13.6 +12.7 94 +12 +12 1019.0 986.7
00 16.08 ЮЗ 2 40 км {дождь, морось} ясно +13.4 +12.5 94 +13 +13 1019.1 986.7
01 16.08 Ю 2-2
{4}
28 км ясно +12.2 +11.5 95 +11 +11 1019.4 986.9
02 16.08 Ю 2-3
{3}
40 км ясно +11.9 +11.2 95 +11 +11 1019.2 986.6
03 16.08 ЮЗ 2-3
{4}
35 км ясно +12.0 +11.3 95 +11 +11 1019.3 986.8
04 16.08 Ю 1-2
{3}
19 км 3/0
[]
+11.5 +10.9 96 +11 +11 1019.6 987.0
05 16.08 ЮЗ 3-5
{5}
35 км 10/10 270 м
[]
+12.1 +11.0 93 +10 +10 1019.8 987.2
06 16.08 З 1 30 км 10/10 100 м
[]
+12.3 +10.9 91 +12 +12 1020.2 987.7 +11.1 +18.3 3
07 16.08 ЮВ 1-2
{3}
35 км 10/10 240 м
[]
+13.1 +11.2 88 +13 +13 1020.2 987.7
08 16.08 Ю 2 50 км 9/9 360 м
[]
+15.2 +11.5 79 +15 +16 1019.8 987.6
09 16.08 ЮЗ 2 70 км 9/9 600 м
[]
+16.6 +11.7 73 +17 +18 1019.4 987.4
10 16.08 ЮЗ 4 70 км 9/9 600 м
[]
+18.1 +11.4 65 +18 +19 1018.9 987.0
11 16.08 Ю 3 70 км 10/10 960 м
[]
+20.3 +12.1 59 +23 +23 комфорт 1018.2 986.6
12 16.08 ЮЗ 4 70 км 10/10 1200 м
[]
+19.7 +11.3 58 +21 +21 комфорт 1017.9 986.2
13 16.08 ЮЗ 4 70 км 6/6 1230 м
[]
+22.0 +11.6 52 +24 +28 комфорт 1017.1 985.7
14 16.08 ЮЗ 4 70 км 5/5 1260 м
[]
+22.5 +10.9 48 +25 +28 комфорт 1016.2 984.9
15 16.08 ЮЗ 4 70 км 9/9 1350 м
[]
+22.2 +10.2 46 +24 +24 комфорт 1015.5 984.2
16 16.08 ЮЗ 4 70 км 9/9 1440 м
[]
+22.2 +10.0 46 +24 +24 комфорт 1014.8 983.5
17 16.08 ЮЗ 4 70 км 6/0
[]
+22.4 +10.5 47 +24 +25 комфорт 1014.1 982.8
18 16.08 Ю 3 70 км 10/0
[]
+20.5 +10.8 54 +23 +23 комфорт 1013.9 982.4 +12.3 +23.6
19 16.08 В 2 70 км 10/0
[]
+18.6 +11.6 64 +20 +20 1013.7 982.1
20 16.08 ЮВ 2 70 км 10/0
[]
+18.2 +11.3 64 +19 +19 1013.7 982.0
21 16.08 штиль 0 70 км 10/0
[]
+17.2 +11.7 70 +17 +17 1014.1 982.3
22 16.08 В 1-1
{2}
70 км 10/0
[]
+16.8 +11.7 72 +18 +18 1013.5 981.7
23 16.08 В 1 70 км 10/0
[]
+16.7 +11.5 71 +18 +18 1012.9 981.1
00 17.08 З 1 70 км 10/0
[]
+16.3 +12.4 78 +17 +17 1012.6 980.8
01 17.08 ЮЗ 2 70 км в посл. час дождь 9/0 2000 м
[]
+17.5 +11.9 70 +18 +18 1011.9 980.2
02 17.08 ЮЗ 3 70 км в посл. час дождь {морось} 10/0 2000 м
[]
+17.1 +12.0 72 +17 +17 1011.5 979.8
03 17.08 ЮЗ 3 70 км в посл. час дождь {морось} 10/0
[]
+17.2 +11.9 71 +17 +17 1011.3 979.6 0.0
04 17.08 ЮЗ 4-5
{5}
70 км 10/0
[]
+17.3 +11.9 71 +17 +17 1011.2 979.5
05 17.08 ЮЗ 4 70 км в посл. час дождь 10/0 2000 м
[]
+17.4 +12.2 72 +17 +17 1011.3 979.6
06 17.08 ЮЗ 4 12 км слаб. дождь {морось} 10/10 1000 м
[]
+16.4 +13.1 81 +16 +16 1012.1 980.3 +15.9 +20.5 0.3
07 17.08 Ю 3 70 км в посл. час дождь {морось} 10/0 2000 м
[]
+15.8 +14.3 91 +15 +17 1012.0 980.1
08 17.08 ЮЗ 3 24 км слаб. морось с дождем 9/9 1500 м
[]
+16.9 +15.4 91 +17 +17 1011.9 980.2
09 17.08 Ю 3 40 км слаб. морось {дождь} 10/0 2000 м
[]
+17.1 +14.9 87 +17 +21 1011.9 980.2 2
10 17.08 Ю 6 70 км слаб. дождь {морось} 9/9 1410 м
[]
+18.4 +14.2 77 +18 +19 1011.7 980.1

 

Местоположение метеостанции Трир (Германия): широта 49.75 долгота 6.67 высота над уровнем моря 265 м.

В архиве по умолчанию представлена погода в Трире за последнюю неделю. Архивные данные за месяц целиком и за предыдущие месяцы, начиная с января 2011 года, Вы можете получить, выбрав интересующий диапазон дат из раскрывающегося списка и нажав кнопку "Ввод!".


*Определитесь, кто Вы:
робот инопланетянин человек

Внимание! Время в таблицах - всемирное. Для получения местного времени необходимо прибавить поправку, которая равна 1 ч.

Смотрите также архив погоды в соседних городах и на ближайших метеорологических станциях:

Погода в Дойзельбахе (Германия) (27 км)
Погода в Люксембурге (Люксембург) (37 км)
Погода в Толае (Германия) (41 км)
Погода в Идар-Оберштайне (Германия) (48 км)
Погода в Аэропорту Франкфурт-Хан (Германия) (48 км)
Погода в Берусе (Германия) (52 км)
Погода на Базе ВВС Buechel (Германия) (55 км)
Погода в Саарбрюккене (Германия) (67 км)
Погода в Нюрбург-Барвайлере (Германия) (70 км)
Погода в Бюзеноле (Бельгия) (80 км)

Пояснения к столбцам:

Ветер - указаны скорость ветра в м/с - средняя за 10 мин, порывы в срок и между сроками (в фигурных скобках) и направление, откуда дует ветер: С - северный, СВ - северо-восточный, В - восточный, ЮВ - юго-восточный, Ю - южный, ЮЗ - юго-западный, З - западный, СЗ - северо-западный.
Видимость - горизонтальная дальность видимости в метрах или километрах. При видимости от 1 до 10 км при отсутствии осадков обычно наблюдается дымка, при ухудшении видимости до 1 км и менее - туман. В сухую погоду видимость может ухудшаться дымом, пылью или мглою.
Явления - указаны атмосферные явления, наблюдавшиеся в срок или в последний час перед сроком; фигурными скобками обозначены явления, наблюдавшиеся между сроками (за 1-3 часа до срока); квадратными скобками обозначены град или гололедные отложения с указанием их диаметра в мм.
Облачность - указаны через наклонную черту общая и нижняя облачность в баллах и высота нижней границы облаков в метрах; квадратными скобками обозначены формы облаков: Ci - перистые, Cs - перисто-слоистые, Cc - перисто-кучевые, Ac - высококучевые, As - высокослоистые, Sc - слоисто-кучевые, Ns - слоисто-дождевые, Cu - кучевые, Cb - кучево-дождевые. Подробнее классификацию облаков см. в Атласе облаков (PDF).
T - Температура воздуха - температура, измеренная на высоте 2 м над землей.
Td - Температура точки росы - температура, при понижении до которой содержащийся в воздухе водяной пар достигнет насыщения.
f - Относительная влажность воздуха - влажноcть воздуха, измеренная на высоте 2 м над землей.
Te - Эффективная температура - температура, которую ощущает одетый по сезону человек в тени. Характеристика душности погоды. При расчете учитывается влияние влажности воздуха и скорости ветра на теплоощущения человека.
Tes - Эффективная температура на солнце - температура, которую ощущает человек, с поправкой на солнечный нагрев. Характеристика знойности погоды. Зависит от высоты солнца над горизонтом, облачности и скорости ветра. Ночью, в пасмурную погоду, а также при ветре 12 м/с и более поправка равна нулю.
P - Атмосферное давление - приведенное к уровню моря атмосферное давление.
Po - Атмосферное давление - измеренное на уровне метеостанции атмосферное давление.
Tmin - Минимальная температура - минимум температуры воздуха на высоте 2 м над землей.
Tmax - Максимальная температура - максимум температуры воздуха на высоте 2 м над землей.
R - Количество осадков - Количество выпавших осадков за период времени, мм. При наведении курсора мыши на число - период времени, за который выпало указанное количество осадков.
R24 - Количество осадков - Количество выпавших осадков за 24 часа, мм.
S - Снежный покров - Высота снежного покрова, см. При наведении курсора мыши на число - состояние снежного покрова и степень покрытия местности в баллах.